This is the latest recevied weather packets stored in our database for station/object KD9CCP. If no packets are shown the sender has not sent any weather packets the latest 10 day(s).
| Time | Temp. | Humidity | Pressure | Rain* | Wind** | Luminosity | Snow |
|---|---|---|---|---|---|---|---|
| 1778158849 | 2.78° C | 75% | 1013.4 hPa | 0 mm | - | 34 W/m² | - |
| 1778158548 | 2.78° C | 75% | 1013.5 hPa | 0 mm | - | 31 W/m² | - |
| 1778158244 | 2.78° C | 72% | 1013.7 hPa | 0 mm | - | 30 W/m² | - |
| 1778157941 | 2.78° C | 75% | 1013.6 hPa | 0 mm | - | 28 W/m² | - |
| 1778157639 | 2.78° C | 73% | 1013.5 hPa | 0 mm | - | 24 W/m² | - |
| 1778157337 | 2.78° C | 74% | 1013.6 hPa | 0 mm | - | 21 W/m² | - |
| 1778157033 | 2.78° C | 73% | 1013.6 hPa | 0 mm | - | 20 W/m² | - |
| 1778156728 | 2.78° C | 74% | 1013.6 hPa | 0 mm | - | 18 W/m² | - |
| 1778156425 | 2.78° C | 73% | 1013.5 hPa | 0 mm | - | 17 W/m² | - |
| 1778156120 | 2.78° C | 74% | 1013.6 hPa | 0 mm | - | 16 W/m² | - |
| 1778155816 | 2.78° C | 78% | 1013.6 hPa | 0 mm | - | 14 W/m² | - |
| 1778155513 | 2.22° C | 74% | 1013.9 hPa | 0 mm | - | 13 W/m² | - |
| 1778155210 | 2.78° C | 78% | 1013.4 hPa | 0 mm | - | 12 W/m² | - |
| 1778154905 | 2.78° C | 75% | 1013.8 hPa | 0 mm | - | 11 W/m² | - |
| 1778154601 | 2.22° C | 74% | 1013.5 hPa | 0 mm | - | 10 W/m² | - |
| 1778154297 | 2.22° C | 75% | 1013.4 hPa | 0 mm | - | 10 W/m² | - |
| 1778153995 | 2.22° C | 75% | 1013.2 hPa | 0 mm | - | 8 W/m² | - |
| 1778153693 | 2.22° C | 76% | 1013.3 hPa | 0 mm | - | 7 W/m² | - |
| 1778153390 | 2.22° C | 76% | 1013.3 hPa | 0 mm | - | 5 W/m² | - |
| 1778153087 | 2.22° C | 74% | 1013.5 hPa | 0 mm | - | 3 W/m² | - |
| 1778152783 | 2.22° C | 77% | 1013.3 hPa | 0 mm | - | 3 W/m² | - |
| 1778152481 | 2.22° C | 76% | 1013.4 hPa | 0 mm | - | 2 W/m² | - |
| 1778152177 | 2.22° C | 75% | 1013.1 hPa | 0 mm | - | 1 W/m² | - |
| 1778151873 | 2.22° C | 78% | 1013.3 hPa | 0 mm | - | 1 W/m² | - |
| 1778151570 | 2.22° C | 77% | 1013.1 hPa | 0 mm | - | 0 W/m² | - |
* Rain latest hour (hover to see other rain measurements)
** Current wind speed in m/s (hover to see current wind gust speed)